Location: McFarlands Corners
(41.4117°N, 81.3382°W)
Time: 13:27:09
(UTC+00:00)

Courier 1B Rocket - Pass Details

Date: 18 February 2026
Orbit: 920 x 1201 km, 28.2° (Epoch: 10 March)

Event Time Altitude Azimuth Distance (km) Brightness Sun altitude
Rises 23:08:09 0° 209° (SSW) 3,542 8.6 -1.8°
Reaches altitude 10° 23:12:34 10° 180° (S) 2,599 7.4 -2.6°
Maximum altitude 23:14:54 12° 158° (SSE) 2,447 7.0 -3.0°
Drops below altitude 10° 23:17:15 10° 135° (SE) 2,619 7.0 -3.4°
Enters shadow 23:21:37 - 107° (ESE) 3,571 7.4 -4.2°
Sets 23:21:44 0° 107° (ESE) 3,602 - -4.3°
